TimeCST,TemperatureF,Dew PointF,Humidity,Sea Level PressureIn,VisibilityMPH,Wind Direction,Wind SpeedMPH,Gust SpeedMPH,PrecipitationIn,Events,Conditions,WindDirDegrees,DateUTC
12:15 AM,37.4,32.0,81,30.40,0.5,NE,3.5,-,N/A,Fog,Fog,40,2012-11-18 06:15:00
12:35 AM,35.6,32.0,87,30.40,0.5,NE,3.5,-,N/A,Fog,Fog,50,2012-11-18 06:35:00
12:55 AM,35.6,32.0,87,30.39,0.5,NE,3.5,-,N/A,Fog,Fog,40,2012-11-18 06:55:00
1:15 AM,35.6,32.0,87,30.39,0.5,NNE,3.5,-,N/A,Fog,Fog,30,2012-11-18 07:15:00
1:35 AM,32.0,32.0,100,30.39,0.5,North,3.5,-,N/A,Fog,Fog,10,2012-11-18 07:35:00
1:55 AM,33.8,32.0,93,30.39,0.5,North,4.6,-,N/A,Fog,Fog,350,2012-11-18 07:55:00
2:15 AM,32.0,32.0,100,30.39,0.5,NNW,4.6,-,N/A,Fog,Fog,330,2012-11-18 08:15:00
2:35 AM,32.0,32.0,100,30.40,0.5,NNE,4.6,-,N/A,Fog,Fog,20,2012-11-18 08:35:00
2:55 AM,32.0,30.2,93,30.39,0.5,Calm,Calm,-,N/A,Fog,Fog,0,2012-11-18 08:55:00
3:15 AM,32.0,30.2,93,30.39,0.5,NNW,4.6,-,N/A,Fog,Fog,330,2012-11-18 09:15:00
3:35 AM,32.0,30.2,93,30.39,0.5,NNW,5.8,-,N/A,Fog,Fog,330,2012-11-18 09:35:00
3:55 AM,32.0,30.2,93,30.38,0.5,North,5.8,-,N/A,Fog,Fog,350,2012-11-18 09:55:00
4:15 AM,32.0,30.2,93,30.38,0.5,North,5.8,-,N/A,Fog,Fog,10,2012-11-18 10:15:00
4:35 AM,32.0,28.4,87,30.39,0.5,North,5.8,-,N/A,Fog,Fog,360,2012-11-18 10:35:00
4:55 AM,32.0,30.2,93,30.39,0.5,NNE,5.8,-,N/A,Fog,Fog,30,2012-11-18 10:55:00
5:15 AM,32.0,28.4,87,30.39,0.5,North,4.6,-,N/A,Fog,Fog,10,2012-11-18 11:15:00
5:35 AM,32.0,28.4,87,30.39,0.5,North,4.6,-,N/A,Fog,Fog,360,2012-11-18 11:35:00
5:55 AM,32.0,28.4,87,30.39,0.5,NNW,3.5,-,N/A,Fog,Light Freezing Fog,340,2012-11-18 11:55:00
6:15 AM,32.0,28.4,87,30.40,0.5,North,4.6,-,N/A,Fog,Fog,10,2012-11-18 12:15:00
6:35 AM,32.0,28.4,87,30.40,0.2,NNE,4.6,-,N/A,Fog,Fog,20,2012-11-18 12:35:00
6:55 AM,32.0,28.4,87,30.40,0.2,NNE,3.5,-,N/A,Fog,Light Freezing Fog,20,2012-11-18 12:55:00
7:15 AM,32.0,28.4,87,30.40,0.2,NE,3.5,-,N/A,Fog,Fog,40,2012-11-18 13:15:00
7:55 AM,33.8,32.0,93,30.41,0.2,NNW,3.5,-,N/A,Fog,Fog,340,2012-11-18 13:55:00
8:15 AM,35.6,32.0,87,30.41,0.2,North,4.6,-,N/A,Fog,Fog,360,2012-11-18 14:15:00
8:35 AM,39.2,33.8,81,30.41,0.2,North,4.6,-,N/A,,Haze,360,2012-11-18 14:35:00
8:55 AM,41.0,35.6,81,30.41,0.2,NE,4.6,-,N/A,,Haze,40,2012-11-18 14:55:00
9:15 AM,41.0,35.6,81,30.41,0.5,NE,4.6,-,N/A,,Haze,50,2012-11-18 15:15:00
9:35 AM,44.6,37.4,76,30.41,1.2,ESE,3.5,-,N/A,,Haze,110,2012-11-18 15:35:00
9:55 AM,46.4,37.4,71,30.41,1.2,ESE,4.6,-,N/A,,Haze,120,2012-11-18 15:55:00
10:15 AM,48.2,37.4,66,30.41,2.5,ESE,4.6,-,N/A,,Haze,120,2012-11-18 16:15:00
10:35 AM,50.0,39.2,66,30.41,3.0,SE,3.5,-,N/A,,Haze,130,2012-11-18 16:35:00
10:55 AM,51.8,39.2,62,30.41,3.0,SE,3.5,-,N/A,,Haze,130,2012-11-18 16:55:00
11:15 AM,53.6,37.4,54,30.40,3.0,SE,3.5,-,N/A,,Haze,130,2012-11-18 17:15:00
11:55 AM,55.4,39.2,54,30.38,1.0,Calm,Calm,-,N/A,,Haze,0,2012-11-18 17:55:00
12:15 PM,55.4,37.4,51,30.37,1.8,Calm,Calm,-,N/A,,Haze,0,2012-11-18 18:15:00
12:35 PM,57.2,35.6,44,30.37,2.0,Calm,Calm,-,N/A,,Haze,0,2012-11-18 18:35:00
12:55 PM,59.0,33.8,39,30.35,1.0,Calm,Calm,-,N/A,,Haze,0,2012-11-18 18:55:00
1:15 PM,60.8,35.6,39,30.35,1.2,East,3.5,-,N/A,,Haze,90,2012-11-18 19:15:00
1:35 PM,60.8,35.6,39,30.34,2.0,SE,3.5,-,N/A,,Haze,140,2012-11-18 19:35:00
1:55 PM,60.8,37.4,42,30.34,5.0,ESE,5.8,-,N/A,,Haze,110,2012-11-18 19:55:00
2:15 PM,60.8,37.4,42,30.33,10.0,SE,6.9,-,N/A,,Unknown,130,2012-11-18 20:15:00
2:35 PM,62.6,37.4,39,30.33,9.0,SE,4.6,-,N/A,,Unknown,130,2012-11-18 20:35:00
2:55 PM,62.6,35.6,37,30.32,10.0,SE,6.9,-,N/A,,Unknown,130,2012-11-18 20:55:00
3:15 PM,62.6,37.4,39,30.33,10.0,SE,5.8,-,N/A,,Unknown,130,2012-11-18 21:15:00
3:55 PM,59.0,42.8,55,30.32,10.0,ESE,4.6,-,N/A,,Unknown,120,2012-11-18 21:55:00
4:15 PM,55.4,42.8,63,30.32,10.0,ESE,4.6,-,N/A,,Unknown,120,2012-11-18 22:15:00
4:55 PM,53.6,42.8,67,30.32,10.0,ESE,4.6,-,N/A,,Unknown,120,2012-11-18 22:55:00
5:15 PM,50.0,41.0,71,30.32,10.0,ESE,5.8,-,N/A,,Unknown,110,2012-11-18 23:15:00
5:35 PM,51.8,39.2,62,30.32,10.0,SE,5.8,-,N/A,,Unknown,140,2012-11-18 23:35:00
5:55 PM,50.0,41.0,71,30.33,10.0,SSE,5.8,-,N/A,,Unknown,160,2012-11-18 23:55:00
6:15 PM,46.4,41.0,81,30.33,10.0,SE,3.5,-,N/A,,Unknown,140,2012-11-19 00:15:00
6:35 PM,46.4,41.0,81,30.34,10.0,SE,4.6,-,N/A,,Unknown,140,2012-11-19 00:35:00
6:55 PM,48.2,41.0,76,30.34,10.0,SSE,4.6,-,N/A,,Unknown,150,2012-11-19 00:55:00
7:15 PM,46.4,41.0,81,30.33,10.0,Calm,Calm,-,N/A,,Unknown,0,2012-11-19 01:15:00
7:35 PM,46.4,39.2,76,30.33,10.0,SE,3.5,-,N/A,,Unknown,140,2012-11-19 01:35:00
7:55 PM,44.6,39.2,81,30.33,10.0,ESE,4.6,-,N/A,,Unknown,110,2012-11-19 01:55:00
8:15 PM,44.6,37.4,76,30.33,10.0,ESE,5.8,-,N/A,,Unknown,110,2012-11-19 02:15:00
8:35 PM,44.6,37.4,76,30.33,10.0,ESE,5.8,-,N/A,,Unknown,120,2012-11-19 02:35:00
8:55 PM,44.6,37.4,76,30.32,10.0,ESE,5.8,-,N/A,,Unknown,110,2012-11-19 02:55:00
9:15 PM,44.6,37.4,76,30.33,10.0,ESE,3.5,-,N/A,,Unknown,120,2012-11-19 03:15:00
9:35 PM,42.8,37.4,81,30.33,10.0,ESE,3.5,-,N/A,,Unknown,110,2012-11-19 03:35:00
9:55 PM,42.8,37.4,81,30.34,10.0,Calm,Calm,-,N/A,,Unknown,0,2012-11-19 03:55:00
10:15 PM,42.8,37.4,81,30.33,10.0,ESE,3.5,-,N/A,,Unknown,110,2012-11-19 04:15:00
10:35 PM,44.6,37.4,76,30.33,10.0,ESE,3.5,-,N/A,,Unknown,120,2012-11-19 04:35:00
10:55 PM,44.6,37.4,76,30.33,10.0,Calm,Calm,-,N/A,,Unknown,0,2012-11-19 04:55:00
11:15 PM,42.8,37.4,81,30.33,10.0,Calm,Calm,-,N/A,,Unknown,0,2012-11-19 05:15:00
11:35 PM,42.8,37.4,81,30.33,10.0,Calm,Calm,-,N/A,,Unknown,0,2012-11-19 05:35:00
11:55 PM,42.8,37.4,81,30.33,10.0,Calm,Calm,-,N/A,,Unknown,0,2012-11-19 05:55:00